sat.trackr.live / text

‹ back to catalog

STARLINK-31652

NORAD 59256 · 2024-050C

PAYLOAD ACTIVE UNKNOWN

§ Identity

Operator
Country
US
Launch date
2024-03-19
Launch site
AFWTR
Launch vehicle
Mass (kg)
RCS (m²)

Purposes: comms

External: N2YO · Heavens-Above · Gunter

§ Orbital elements

Epoch: 2026-09-20T12:15:46.822176Z

Period
94.01 min
Inclination
53.1597°
Eccentricity
0.0001362
Mean motion
15.31689367 rev/d
Perigee alt
469.8 km
Apogee alt
471.7 km
Semi-major
6,848.9 km
B*
-3.7860e-6
RAAN
354.8600°
Arg perigee
107.1017°
Mean anomaly
253.0134°
Rev number
14,039

§ Raw data

STARLINK-316521 59256U 24050C   26263.51095859 -.00000483  00000+0 -37860-5 0  99942 59256  53.1597 354.8600 0001362 107.1017 253.0134 15.31689367140398

JSON: /api/v1/satellites/59256 · /tle

For live sub-satellite position, see the globe view (requires WebGL).

§ Visibility from observer

Set your observer location to see the next 7 days of passes ≥ 10°. The values pass through the URL so the page stays shareable.

No JS? Fill the form by hand. The geolocation button needs JavaScript.